Regional Weather Roundup
Issued by NWS

Home | Current Version | Previous Version | Text Only | Print | Product List | Glossary On
Versions: 1 2 3 4 5 6 7 8 9 10 11 12 13 14 15 16 17 18 19 20 21 22 23 24 25 26 27 28 29 30 31 32 33 34 35 36 37 38 39 40 41 42 43 44 45 46 47 48 49 50
838
ASUS45 KSLC 201310
RWRUT

UTAH REGIONAL WEATHER ROUNDUP
NATIONAL WEATHER SERVICE SALT LAKE CITY UT
700 AM MDT FRI APR 20 2018

UTZ001>011-023>025-201400-

NORTHERN UTAH

CITY           SKY/WX    TMP DP  RH WIND       PRES   REMARKS
BRIGHAM CITY   CLOUDY    52  22  30 N22       29.81R
DUGWAY         CLOUDY    47  34  59 NE7       29.83R
HILL AFB       CLOUDY    51  26  38 NW7       29.80R
LOGAN          CLOUDY    46  30  53 S9        29.85R
OGDEN          CLOUDY    50  27  40 NW9       29.79R
SALT LAKE CITY MOCLDY    55  32  41 N20G25    29.77R
TOOELE VALLEY  LGT RAIN  50  37  62 NW13G24   29.80R
WENDOVER       MOCLDY    53  23  31 N29G40    29.85
HEBER CITY       N/A     45  32  61 N14G20    29.77R
WEST JORDAN    MOCLDY    48  34  58 NW10      29.79R

$$

UTZ011>015-024>027-201400-

CENTRAL/NORTHEAST UTAH

CITY           SKY/WX    TMP DP  RH WIND       PRES   REMARKS
PROVO AIRPORT  CLOUDY    43  37  79 SE6       29.82R
MOAB/CANYONLAN MOCLDY    43  17  35 S7        29.79R
DELTA          CLOUDY    37  36  93 SE3       29.84R
PRICE          CLOUDY    43  19  38 S6        29.81R
ROOSEVELT      MOCLDY    48  34  57 E17       29.79R
VERNAL         CLOUDY    46  38  73 NE16      29.82R

$$

UTZ013>016-019>022-027-201400-

SOUTHERN UTAH

CITY           SKY/WX    TMP DP  RH WIND       PRES   REMARKS
BRYCE CANYON   LGT SNOW  27  26  96 SE7       29.81S VSB 3/4 WCI  19
CEDAR CITY     LGT SNOW  32  32 100 SW8       29.84S FOG     WCI  25
MILFORD        CLOUDY    36  36 100 S9        29.81S WCI  29
ST GEORGE      LGT RAIN  47  39  74 N3        29.90R
HANKSVILLE     CLOUDY    45  21  39 CALM      29.80R
BLANDING         N/A     33  13  43 E5        29.93R WCI  28

$$

REGIONAL REPORTS     COLORADO/ARIZONA

CITY           SKY/WX    TMP DP  RH WIND       PRES   REMARKS
CRAIG, CO      LGT RAIN  41  39  93 E7        29.87S
GRAND JUNCTION CLOUDY    51  28  41 SE16G24   29.81R
RIFLE, CO      LGT RAIN  43  36  76 SW12      29.89R
MONTROSE, CO   CLOUDY    41  30  65 SE9       29.88S
CORTEZ, CO     MOCLDY    36  12  37 SW8       29.88R WCI  30
COLORADO CITY  LGT RAIN  39  36  87 W3        29.91F
PAGE, AZ       MOCLDY    45  28  51 CALM      29.85R
GRAND CANYON   NOT AVBL
KINGMAN, AZ    CLEAR     42  30  62 S9        29.96R
FLAGSTAFF, AZ  PTCLDY    28  20  71 SW7       29.93S WCI  21

$$

REGIONAL REPORTS    NEVADA/IDAHO/WYOMING

CITY           SKY/WX    TMP DP  RH WIND       PRES   REMARKS
LAS VEGAS, NV  PTCLDY    54  36  50 VRB5      29.94R
ELY, NY        PTCLDY    38  22  52 NW9       29.95R WCI  31
ELKO, NV       CLEAR     38  26  62 W12       30.06R WCI  30
POCATELLO, ID  CLEAR     33  28  81 SW7       30.00R WCI  27
BURLEY, ID     CLEAR     39  28  64 W13G24    30.00R WCI  31
FORT BRIDGER,  CLOUDY    36  36 100 NE12      29.94R WCI  28
EVANSTON, WY   CLOUDY    37  33  85 NE20G30   29.90R WCI  27
ROCK SPRINGS,  CLOUDY    40  22  48 NE26G37   29.90R WCI  29
KEMMERER, WY   DRIZZLE   34  32  93 NE16      29.94R WCI  23

$$




USA.gov is the U.S. government's official web portal to all federal, state and local government web resources and services.